CYGFM04

Last updated on Tue Dec 09 2025 00:02:22 GMT+0000 (Coordinated Universal Time)

1 41885U 16078B 25342.57506117 .00029253 00000+0 50242-3 0 9992 2 41885 34.9353 49.2270 0009015 173.4438 186.6404 15.50097993499294
UTC large
Height (km)
Speed (km/s)
/
Latitude / Longitude
Inclination (degrees)
Orbital Period (minutes)
Azimuth
Elevation
Range (km)
Doppler Factor

Next 0 passes for location: London (51.5072 / 0.1276)

Sorry there are no passes over London.